Location: Lombard
(41.8800°N, 88.0080°W)
Time: 19:54:10
(UTC-05:00)

Transit 2A - Pass Details

Date: 07 February 2023
Orbit: 591 x 964 km, 66.7° (Epoch: 29 March)

Event Time Altitude Azimuth Distance (km) Brightness Sun altitude
Rises 16:27:19 0° 228° (SW) 2,985 11.0 7.2°
Reaches altitude 10° 16:29:36 10° 235° (SW) 2,126 10.9 6.9°
Maximum altitude 16:34:14 44° 307° (NW) 1,011 7.0 6.1°
Drops below altitude 10° 16:39:24 10° 20° (NNE) 2,373 8.2 5.2°
Sets 16:42:05 0° 27° (NNE) 3,373 8.8 4.8°
